Retour au catalogue

DMSP 5D-2 F13 DEB

ActifSSO
NORAD 40678·DEBRIS·🇺🇸 United States

Lancé Mar 24, 1995 depuis Vandenberg Space Force Base

Loading…

Prochains Passages (prochaines 24 heures)

TLE

FraisSource: Space-Track

Époque: Sep 13, 2026, 14:33 UTC

1 40678U 95015FS  26256.60630419  .00005225  00000-0  11620-2 0  9991
2 40678  98.5811 313.7150 0012783 243.5961 116.3925 14.57371978592577

Suivez DMSP 5D-2 F13 DEB en temps réel avec AllMySat

Download on the App Store